Location: Unspecified
(0.0000°N, 0.0000°E)
Time: 11:42:12
(UTC+00:00)

A-11 Canister half - Pass Details

Date: 06 August 2021
Orbit: 1515 x 1685 km, 47.2° (Epoch: 27 September)

Event Time Altitude Azimuth Distance (km) Brightness Sun altitude
Rises 12:36:53 0° 224° (SW) 4,656 11.5 71.8°
Reaches altitude 10° 12:39:54 10° 226° (SW) 3,677 11.1 71.5°
Maximum altitude 12:49:08 74° 309° (NW) 1,588 12.0 70.3°
Drops below altitude 10° 12:58:36 10° 34° (NNE) 3,762 11.3 69.0°
Sets 13:01:44 0° 36° (NE) 4,768 11.7 68.5°
